RH
100 74 59 54 46 43 36 35 30 38 27 26 38 34 33 31 32 33 33 31 28 25 21 20 20 16 13 14 15 21 19 23 21 21 84 96 100 92 100 100 87 82 66 50 65
95 90 61 67 57 48 44 39 34 38 40 25 35 41 38 36 33 34 36 28 25 25 25 21 18 18 16 14 14 17 20 27 32 22 32 95 100 93 96 100 100 100 81 43 42
89 82 68 74 71 62 53 44 41 39 44 25 25 45 44 39 37 45 41 30 24 23 22 24 22 18 19 18 15 16 18 27 33 28 22 75 100 96 97 100 100 100 94 84 52
99 93 77 61 76 67 56 51 43 54 45 33 29 46 45 40 40 44 41 32 28 28 28 27 22 20 23 19 16 12 16 21 29 31 22 34 82 99 100 95 100 91 75 69 59
99 96 77 60 69 81 65 57 43 52 55 48 41 48 51 47 46 42 42 39 34 36 38 37 28 24 25 25 17 14 16 19 25 29 24 24 39 49 89 100 100 81 88 85 91
100 87 80 75 67 87 76 63 53 52 55 58 55 52 57 56 54 50 44 42 45 51 52 60 46 31 25 25 20 20 16 18 21 26 24 22 26 30 34 74 100 100 96 97 83
96 82 80 68 69 77 74 70 81 69 55 60 64 55 64 68 58 52 46 59 78 100 100 100 95 56 33 25 25 22 17 17 16 22 25 23 25 35 29 23 64 100 100 100 97
100 100 88 93 85 76 97 98 100 75 64 53 72 63 76 71 67 58 50 65 66 79 100 100 66 50 39 27 26 24 18 18 18 18 24 25 38 46 31 22 36 57 80 98 98
100 100 100 100 96 89 86 100 86 66 64 57 74 74 83 87 72 64 61 74 90 95 84 58 55 60 52 36 25 23 18 18 19 16 21 26 46 43 30 26 36 35 54 77 87
100 100 100 100 100 99 83 92 80 61 67 68 72 81 85 97 86 82 88 86 77 76 92 98 97 92 77 50 27 26 24 22 21 17 19 26 45 36 33 33 43 44 82 93 87
43 98 100 100 100 99 85 96 90 69 70 76 76 92 89 97 88 71 73 82 92 100 100 100 85 73 94 83 50 22 22 17 21 20 18 25 44 37 33 35 46 73 91 84 64
64 40 68 100 100 100 100 99 72 71 69 80 92 100 88 82 70 68 76 97 100 100 97 80 62 95 70 58 22 16 18 18 19 21 16 28 45 35 35 42 52 73 71 66 51
90 48 40 77 100 96 100 98 74 82 60 73 100 99 87 68 63 80 96 98 98 97 88 44 52 23 17 16 11 14 17 20 18 23 21 26 39 37 34 52 52 62 62 51 45
81 55 40 64 81 82 100 100 84 88 54 80 100 100 76 59 72 92 94 78 57 56 37 14 26 19 15 12 9 17 20 20 20 22 21 27 42 40 31 47 45 59 54 47 40
73 51 43 65 87 97 100 92 92 92 63 80 88 66 54 63 79 89 67 39 24 21 14 17 14 7 4 7 6 21 23 21 21 21 27 27 37 39 26 47 67 57 50 44 35
56 50 44 52 82 100 100 79 98 75 84 79 64 44 50 72 69 52 36 24 16 13 11 8 5 5 5 4 6 30 21 21 32 25 24 34 42 37 32 59 61 54 47 41 33
40 52 40 52 92 100 99 97 91 92 86 71 54 48 60 53 37 24 16 14 12 8 6 3 4 2 2 3 10 8 17 23 21 25 22 23 38 27 42 58 60 52 46 42 32
37 49 34 68 100 94 97 100 90 92 88 67 47 61 49 30 20 12 9 8 7 5 4 4 2 2 3 6 8 14 21 23 18 21 22 21 30 30 44 62 59 50 43 42 34
41 44 38 83 100 100 100 100 96 94 77 52 58 53 32 20 9 7 7 7 4 3 4 3 2 4 12 14 17 26 28 36 50 30 45 35 41 50 51 61 56 48 44 38 38
43 35 51 82 100 100 99 100 99 90 62 64 65 43 28 10 7 6 6 4 4 5 5 4 7 12 19 27 39 36 81 99 61 36 34 43 46 49 53 57 51 47 44 47 52
38 41 80 74 98 100 100 100 88 82 61 76 71 40 28 9 8 5 4 5 7 12 10 14 19 30 35 37 42 64 70 45 48 44 43 48 48 54 53 53 46 45 49 51 53
28 57 81 71 98 100 100 100 95 67 71 81 66 43 32 23 8 8 7 10 22 29 34 51 38 44 56 56 48 75 69 34 37 32 40 48 55 58 48 52 46 43 42 48 42
35 81 74 86 100 100 100 96 80 68 84 78 59 58 42 43 28 14 14 31 43 56 54 68 67 59 61 76 50 65 52 36 40 41 44 53 53 52 44 40 40 39 41 44 39
55 76 84 100 100 100 100 96 70 67 94 72 63 69 56 52 41 19 24 57 54 59 74 94 71 100 98 80 72 44 31 36 32 44 43 51 55 55 43 32 32 35 39 42 36
62 82 96 100 100 100 100 87 71 68 100 66 65 69 76 49 57 28 22 40 71 74 69 94 71 67 42 44 34 34 24 26 41 52 45 45 55 50 36 29 28 31 36 37 36
69 81 100 100 100 100 100 72 72 94 100 59 66 64 90 59 62 38 25 23 34 45 53 57 54 36 38 28 30 28 22 31 36 32 33 40 48 47 32 30 28 28 32 35 37
80 95 93 100 100 100 98 68 70 80 99 71 57 64 58 64 54 44 57 44 26 21 22 20 20 17 20 24 25 22 32 35 36 38 44 43 46 38 32 28 29 34 38 39 40
Wind_Speed
62 61 59 53 53 52 53 55 54 50 49 48 46 46 47 47 46 50 52 56 60 62 64 66 67 74 77 78 76 73 68 62 64 67 67 83 76 73 75 74 72 74 69 64 68
63 60 57 54 52 53 55 54 58 50 48 48 49 48 48 49 49 49 57 59 64 66 68 69 70 72 74 80 81 76 71 67 70 69 65 71 75 76 78 76 76 72 67 66 70
63 64 58 53 53 55 56 55 57 59 48 49 49 50 50 49 50 48 56 59 61 65 70 73 73 72 72 78 83 82 74 75 71 70 66 59 71 79 78 79 79 74 63 64 70
63 63 62 59 55 58 59 56 58 58 53 49 49 51 52 51 50 52 56 59 59 59 65 72 76 75 75 74 83 85 80 78 75 73 64 61 64 66 74 80 75 73 73 71 71
68 67 67 62 59 58 57 58 56 56 55 48 50 53 53 54 57 54 52 57 58 58 60 63 73 77 80 78 80 85 84 84 80 75 65 63 60 63 64 73 78 73 72 73 73
76 74 70 67 65 59 59 59 56 55 57 52 52 53 55 55 59 57 52 52 53 52 52 52 60 74 80 83 81 82 87 87 86 77 69 63 61 61 64 61 65 73 74 76 74
82 82 80 71 69 64 62 60 60 59 59 58 56 54 54 61 58 57 46 48 46 48 50 55 60 66 74 84 85 83 86 90 87 77 71 64 61 59 66 60 52 56 64 71 72
78 80 78 78 69 67 62 59 62 61 64 61 59 55 56 62 58 54 48 50 53 54 58 63 65 65 68 80 86 89 88 88 85 81 73 67 60 63 62 52 53 52 54 49 49
82 83 79 76 72 68 62 62 63 66 64 60 60 57 57 63 58 51 50 55 58 63 67 70 69 69 70 72 84 92 86 83 89 83 78 69 64 64 59 50 51 47 47 46 45
85 83 80 77 75 69 66 63 67 65 61 61 59 58 60 61 57 55 59 61 64 69 69 70 73 74 72 72 72 79 90 85 87 85 81 72 65 65 57 53 48 44 45 42 37
74 80 78 75 73 69 65 62 67 60 61 60 58 63 61 60 61 63 64 67 68 69 75 78 78 70 71 74 70 84 94 93 88 87 85 74 70 66 58 54 47 43 43 39 36
59 70 73 73 72 66 65 65 65 61 57 58 61 63 67 64 64 69 67 67 72 73 78 81 72 72 79 77 67 79 94 95 89 90 88 78 70 65 59 53 49 44 43 39 38
59 61 70 69 66 66 63 64 63 61 57 54 63 66 70 64 65 69 71 76 75 77 81 82 68 75 71 70 59 71 90 93 86 88 84 78 70 64 57 54 50 45 45 41 38
63 59 67 66 61 63 60 63 61 62 55 56 63 66 68 63 62 73 74 78 75 74 83 66 69 70 67 60 58 68 82 92 88 85 82 77 68 66 59 54 48 48 45 42 38
65 59 65 62 59 59 59 58 55 64 58 58 63 65 60 63 66 72 74 74 66 67 69 62 64 58 53 54 63 71 87 93 92 90 84 77 67 65 55 52 52 49 45 42 42
62 59 62 59 55 56 56 53 55 60 59 60 65 55 54 64 68 71 67 65 54 54 49 50 49 42 47 55 64 90 90 90 81 86 83 78 68 68 56 54 56 49 43 44 42
58 58 59 55 52 52 49 46 55 59 59 60 58 51 59 64 64 63 59 53 43 39 38 37 37 40 45 56 79 80 89 94 94 91 79 72 65 65 57 53 53 49 44 44 44
55 56 55 48 51 47 41 46 54 53 55 56 50 54 60 59 55 53 42 35 29 30 30 31 32 37 42 53 59 74 85 88 78 77 73 68 63 62 53 54 54 49 44 46 45
54 52 51 47 47 40 38 47 48 48 50 47 47 53 55 48 43 33 23 20 21 22 25 30 33 46 54 58 72 83 83 80 78 79 76 66 67 64 56 55 51 48 46 43 39
52 50 51 46 43 37 40 43 42 43 40 40 43 50 47 35 23 16 16 19 19 19 30 38 52 58 65 78 84 87 84 83 84 81 74 72 67 60 55 53 52 51 48 42 39
51 51 49 43 39 36 37 38 36 34 33 32 39 44 39 20 10 5 15 23 29 30 42 54 62 71 76 81 90 91 87 78 74 76 70 68 63 58 56 55 54 53 49 43 40
51 52 47 39 36 35 35 31 30 25 23 25 31 37 34 20 8 6 20 35 44 51 62 65 68 72 81 83 84 82 86 80 79 72 70 68 61 60 57 55 55 53 48 43 40
56 52 43 37 36 32 31 27 23 20 17 18 24 30 31 26 11 7 34 49 59 64 66 71 75 79 79 80 82 79 81 81 77 71 70 66 60 58 57 56 55 52 49 45 43
56 49 41 38 34 31 27 24 18 15 12 10 15 22 23 22 9 12 43 60 62 68 71 74 79 74 77 80 81 77 78 79 70 67 67 63 60 57 55 53 52 52 51 48 46
54 49 42 39 33 30 25 22 16 12 10 4 7 12 14 15 9 13 39 60 64 65 71 74 76 77 80 75 76 79 76 69 67 69 64 62 60 57 56 55 54 53 51 50 50
55 49 44 38 33 29 23 21 15 10 8 5 4 5 8 6 10 11 19 49 65 69 71 74 75 75 71 74 77 72 63 60 63 61 61 59 60 56 53 55 53 50 51 52 53
55 50 44 36 34 27 24 18 15 11 10 8 9 5 7 8 10 18 27 27 38 51 55 58 62 57 64 68 67 63 60 62 62 61 63 59 61 54 51 52 52 53 56 55 57
Wind_Direction
267 271 274 273 271 274 278 281 280 275 271 270 275 279 281 282 270 269 264 259 255 252 249 245 240 236 234 234 233 232 232 236 238 237 236 230 232 234 234 236 241 244 245 242 254
267 269 272 271 269 272 278 281 285 277 277 274 277 282 282 282 276 268 270 267 260 253 249 246 242 239 235 232 232 231 230 233 238 238 236 232 231 234 233 235 238 242 245 246 251
265 267 267 266 269 271 275 279 283 281 277 274 274 281 283 282 281 268 277 269 260 251 245 243 241 238 237 233 231 230 228 228 234 237 234 233 230 233 234 236 238 241 245 244 248
261 264 267 265 268 269 274 276 280 278 276 276 276 281 284 283 280 275 276 270 261 252 247 242 239 237 236 234 231 229 227 229 231 236 233 232 233 237 234 236 239 241 243 248 250
260 261 265 268 268 269 270 274 276 276 277 279 280 282 286 290 281 283 280 267 259 252 249 248 242 236 234 233 231 227 226 227 229 232 232 230 232 239 237 238 238 241 243 246 248
261 261 263 267 268 269 275 271 274 281 278 281 284 283 289 291 285 291 278 263 259 259 256 254 249 242 234 232 231 227 225 225 227 229 230 231 231 237 241 240 237 238 243 245 247
262 263 266 267 267 270 274 272 276 279 283 280 286 285 289 286 289 289 271 261 258 259 265 264 260 252 241 233 230 229 224 225 226 226 229 229 232 235 241 243 243 241 243 244 246
260 262 267 267 268 270 269 270 272 277 282 281 286 287 290 291 291 281 269 259 261 263 265 264 261 256 248 237 230 228 225 223 225 223 226 229 231 234 240 241 243 244 246 245 248
262 263 262 264 268 269 266 267 273 278 283 280 285 288 290 291 289 276 265 261 261 262 263 264 265 263 258 247 233 227 226 222 223 220 223 225 227 233 235 237 242 243 247 247 248
259 261 261 261 263 267 263 267 273 279 282 280 286 286 291 289 282 272 270 270 270 273 275 272 267 262 258 252 240 230 224 222 221 217 219 221 224 231 231 233 237 236 239 241 246
257 255 257 258 260 260 263 264 271 278 281 283 287 288 290 288 281 277 276 277 279 278 275 269 265 262 258 252 240 227 222 219 216 215 215 217 220 226 227 232 232 231 233 241 242
272 256 254 255 256 260 261 264 270 274 278 285 287 291 293 289 284 281 283 282 279 276 273 270 266 263 252 245 234 222 220 219 214 214 212 213 217 223 225 229 228 226 233 235 239
277 262 252 252 255 255 258 262 269 273 277 284 286 291 290 290 285 287 286 282 278 276 272 265 261 253 251 247 230 213 216 217 213 212 210 211 214 219 221 224 226 226 229 231 235
276 263 251 247 251 251 258 260 269 274 278 284 286 290 292 290 291 287 284 281 277 272 266 265 259 252 248 241 226 205 209 210 210 212 208 208 210 216 219 222 225 224 227 228 233
270 258 247 244 244 250 254 260 270 274 281 282 287 291 290 293 287 285 286 281 275 263 264 258 250 246 234 224 213 193 201 205 205 206 204 205 209 218 218 218 221 223 225 228 228
260 250 242 240 240 247 254 261 270 277 283 288 294 292 293 291 292 289 285 278 274 263 254 244 237 233 224 214 198 192 194 198 200 206 202 201 204 217 214 211 218 221 222 225 226
247 242 238 236 237 245 253 262 270 279 285 293 296 300 297 297 295 290 283 278 266 252 238 231 219 211 206 198 193 195 190 191 198 199 197 200 205 217 210 212 216 221 221 223 226
235 234 230 228 236 242 252 262 271 279 288 297 301 302 303 304 298 289 283 268 245 230 216 204 199 193 189 189 193 186 184 190 197 196 197 200 205 216 209 211 213 220 220 222 228
226 226 221 218 231 240 251 262 273 282 296 300 305 309 313 313 299 288 262 231 212 201 192 193 183 173 170 178 176 176 177 182 193 191 195 199 205 210 207 212 212 217 221 219 225
218 214 212 214 225 235 249 263 273 288 296 304 311 317 326 320 300 256 206 180 168 171 180 172 163 166 168 167 169 171 174 181 190 189 193 198 203 207 206 212 212 214 220 223 229
210 203 209 209 221 234 250 262 276 291 297 311 320 325 337 326 310 221 182 160 151 157 161 159 158 161 162 165 169 172 180 184 185 190 192 201 203 206 208 212 213 215 221 227 232
199 198 204 203 216 232 248 261 279 286 302 320 329 339 343 2 331 232 169 146 143 153 153 154 159 158 160 166 172 176 184 185 190 189 194 202 202 208 211 214 216 219 224 230 236
191 194 196 200 216 229 246 258 272 281 311 322 341 353 354 11 13 170 145 139 148 152 154 156 158 160 162 171 178 177 186 185 190 191 197 203 204 209 214 217 218 222 227 232 238
186 189 189 202 214 230 239 256 256 276 307 324 353 8 11 25 25 141 142 145 156 156 156 158 163 163 171 177 183 183 180 186 188 193 200 203 207 212 217 219 221 226 229 234 241
182 184 189 201 214 226 233 247 238 266 281 295 15 32 26 47 68 163 157 153 156 159 163 165 168 177 178 182 182 187 187 186 189 197 203 206 211 215 218 219 224 230 235 240 244
179 182 191 197 212 218 229 238 223 243 241 205 117 72 78 73 93 106 182 165 163 167 170 174 178 185 182 184 185 188 188 190 197 201 207 210 216 219 221 222 231 238 243 247 252
178 184 190 196 207 211 223 223 215 229 228 206 158 161 145 136 145 152 157 173 178 175 179 185 189 190 188 185 187 189 189 197 202 206 213 215 221 223 227 231 236 241 246 250 256